カタログに戻る

STARLINK-35366

運用中通信VLEO
NORAD 66512·PAYLOAD·🇺🇸 United States

打ち上げ Nov 15, 2025 から Cape Canaveral Space Force Station

Loading…

次のパス (今後24時間)

TLE

最新Source: CelesTrak SupGP

元期: Sep 15, 2026, 02:27 UTC

1 66512C 25263AD  26258.10256944  .00021185  00000+0  76716-3 0  2586
2 66512  43.0041   1.0415 0002011 266.5912 195.7652 15.27573615    18

AllMySatでSTARLINK-35366をリアルタイム追跡

Download on the App Store